星链-11725 (STARLINK-11725)

导读

STARLINK-11725是美国SpaceX星链星座的一员,于2025年5月24日发射升空。星链旨在构建全球卫星互联网,为偏远地区、航空、海运等场景提供宽带服务,这颗卫星将进一步扩充星链星座规模,提升星座整体覆盖能力与服务稳定性,是美国推进低轨卫星星座部署的最新节点。

Basic Information
目录编号:
64125
目录名称:
STARLINK-11725
国际标识:
2025-111C
轨道中心:
EARTH
卫星名称:
星链-11725
卫星全名:
星链-11725 (STARLINK-11725)
卫星状态:
在轨 (已飞行469 天)
发射日期:
2025-05-24 UTC
国别 :
美国 (US)
星等 :
--
Orbit Information
数据来源 国际轨道数据
星历时间: 2026-09-05T13:17:48+0800
6小时前
查看轨道信息
半长轴: 6734.48km
偏心率: 0.000108
轨道倾角: 43.000°
近地点辐角 254.959°
升交点赤经 331.790°
平近点角 105.116°
近地点: 355.615km
远地点: 357.071km
周期: 91.668分钟
每日圈数: 15.708934
Detailed Information
固有亮度:
5
最大亮度:
2.5
卫星平台:
Starlink V1.0
覆盖范围:
全球
运营商:
太空探索技术公司
运营商所在国:
美国
制造商(研发单位):
太空探索技术公司
制造商所在国:
美国
使用方式:
暂无
Satellite Introduction
Starlink 计划是 SpaceX 推出的全球卫星互联网项目,通过发射低轨道卫星,为全球尤其是偏远地区提供高速、低延迟的互联网服务。自 2019 年起,Starlink 已部署数千颗卫星,旨在缩小全球数字鸿沟,推动互联网普及。该项目还为军事、航空等行业提供通信支持,带来广泛经济效益。
2D Orbit Map
3D Orbit Map
Orbit Altitude Analysis Chart
Orbit Inclination Analysis Chart
Orbit Comprehensive Analysis Chart
View Comprehensive Chart
Conjunction Data List
Event ID Objects TCA Miss Dist (km) Collision Risk Probability Collision Risk Index (CRI) Action
CDM_260907-180206-209706-412521
2026-09-07T
18:02:27+0000
1.219 km
极远距离
7.204888E-6 低风险 0.52